[[{"header":{"parameterUnit":"m.s-1","parameterCategory":1,"la1":30.2991,"la2":30.254,"lo1":-89.0895,"lo2":-89.0444,"dy":0.0017,"dx":0.0017,"nx":28,"ny":28,"refTime":"2025-01-22T03:00:00:Z","depth":0,"parameterNumber":2,"parameterNumberName":"U-component_of_WINDS"},"data":[0,0,0,0,0,0,0,0,0,0,0,0,0,0,0,0,0,0,0,0,0,0,0,0,0,0,0,0,0,0,0,0,0,0,0,0,0,0,0,0,0,0,0,0,0,0,0,0,0,0,0,0,0,0,0,0,0,0,-1.4949,-1.4949,0,-1.4956,-1.4956,-1.4956,-1.4895,-1.4893,-1.4891,-1.489,-1.4899,-1.49,-1.4902,0,0,0,0,0,0,0,0,0,0,0,0,0,-1.4882,-1.4884,-1.4949,-1.4949,-1.4949,-1.4956,-1.4956,-1.4956,-1.4895,-1.4893,-1.4891,-1.4889,-1.4898,-1.49,-1.4902,0,0,0,0,0,0,0,0,0,0,0,0,0,-1.4903,-1.4884,-1.4949,-1.4919,-1.4916,-1.4956,-1.4956,-1.4956,-1.4895,-1.4893,-1.489,-1.4888,-1.4897,-1.49,-1.4903,-1.4971,0,0,-1.4911,-1.4912,0,0,0,0,0,0,0,0,-1.4902,-1.4905,-1.4923,-1.4921,-1.4918,-1.4922,-1.4936,-1.4961,-1.4896,-1.4903,-1.489,-1.4887,-1.4909,-1.491,-1.4917,-1.4972,-1.4972,-1.4911,-1.4913,-1.4914,-1.4915,0,0,0,0,0,0,0,-1.49,-1.4904,-1.4951,-1.4924,-1.4921,-1.4906,-1.4906,-1.494,-1.492,-1.4903,-1.4898,-1.49,-1.4907,-1.4915,-1.4917,-1.4972,-1.4911,-1.4914,-1.4916,-1.4917,-1.5083,-1.5085,0,0,0,0,0,0,-1.4903,-1.4904,-1.4951,-1.4952,-1.4903,-1.4909,-1.4909,-1.4923,-1.492,-1.4917,-1.4902,-1.4897,-1.4911,-1.4914,-1.4917,-1.4997,-1.4914,-1.4917,-1.4918,-1.508,-1.5083,-1.5086,0,0,0,0,0,0,-1.4901,-1.4907,-1.4951,-1.4926,-1.4931,-1.4913,-1.4929,-1.4925,-1.4933,-1.4919,-1.4916,-1.4914,-1.4909,-1.4913,-1.4958,-1.4997,-1.4918,-1.4921,-1.5077,-1.5081,-1.5085,-1.5158,0,0,0,0,0,0,-1.49,-1.4907,-1.4933,-1.4927,-1.4932,-1.4992,-1.4932,-1.4927,-1.4938,-1.4931,-1.493,-1.4927,-1.4908,-1.4954,-1.4961,-1.4999,-1.4923,-1.5073,-1.5079,-1.5083,-1.5152,-1.5164,-1.5175,0,0,0,0,0,-1.4898,-1.4954,-1.4935,-1.4941,-1.4964,-1.4994,-1.4997,-1.4974,-1.4941,-1.4967,-1.4958,-1.4927,-1.4991,-1.4959,-1.4966,-1.5006,-1.5071,-1.5077,-1.5083,-1.5147,-1.5162,-1.5174,0,0,0,0,0,0,-1.4966,-1.4953,-1.4931,-1.4988,-1.4992,-1.4984,-1.5016,-1.499,-1.5005,-1.4998,-1.4968,-1.4968,-1.5018,-1.5016,-1.4981,-1.5072,-1.5025,-1.5033,-1.5072,-1.5085,-1.5096,-1.5097,-1.4925,0,0,0,0,0,-1.4987,-1.5012,-1.5,-1.505,-1.5054,-1.5035,-1.5047,-1.5028,-1.5032,-1.5034,-1.5028,-1.5034,-1.5055,-1.507,-1.5089,-1.5151,-1.515,-1.5182,-1.5193,-1.5202,-1.521,-1.5243,-1.5257,-1.5107,-1.5107,-1.5106,0,0,-1.5032,-1.5028,-1.5046,-1.5064,-1.5065,-1.5093,-1.5037,-1.5068,-1.5088,-1.5039,-1.5081,-1.5077,-1.5081,-1.5135,-1.5158,-1.5135,-1.525,-1.521,-1.5217,-1.522,-1.525,-1.5265,-1.5277,-1.5111,-1.511,-1.5109,0,0,-1.5128,-1.5127,-1.5169,-1.5172,-1.5174,-1.5161,-1.5171,-1.5166,-1.5161,-1.5203,-1.5166,-1.5189,-1.5227,-1.5231,-1.5238,-1.5334,-1.5306,-1.5341,-1.54,-1.5432,-1.5444,-1.5455,-1.5489,-1.5502,-1.5348,-1.5348,-1.5348,0,-1.5184,-1.5223,-1.5195,-1.5228,-1.5237,-1.5192,-1.5235,-1.5239,-1.5248,-1.5255,-1.5228,-1.5274,-1.5273,-1.5328,-1.5351,-1.5358,-1.5369,-1.5342,-1.5445,-1.5455,-1.5464,-1.5497,-1.551,-1.5353,-1.5352,-1.5352,-1.5351,0,-1.5291,-1.5319,-1.5352,-1.5362,-1.5374,-1.5412,-1.539,-1.5406,-1.5385,-1.5375,-1.5418,-1.5415,-1.5433,-1.5444,-1.5424,-1.5495,-1.5481,-1.545,-1.5402,-1.5483,-1.5514,-1.5526,-1.5359,-1.5357,-1.5356,-1.5355,0,0,-1.5433,-1.5424,-1.5437,-1.544,-1.5439,-1.546,-1.5495,-1.5512,-1.5527,-1.5534,-1.5563,-1.5595,-1.5566,-1.5574,-1.5554,-1.5583,-1.5659,-1.5548,-1.5548,-1.557,-1.5738,-1.5762,-1.5777,-1.564,-1.5642,-1.5644,-1.5738,0,-1.5527,-1.5587,-1.5562,-1.5624,-1.5649,-1.5607,-1.5638,-1.564,-1.5631,-1.5651,-1.564,-1.5664,-1.5623,-1.5628,-1.5654,-1.5645,-1.5693,-1.5637,-1.5668,-1.5669,-1.567,-1.5793,-1.5819,-1.5908,-1.5749,-1.5751,-1.5753,0,-1.5645,-1.5656,-1.5721,-1.5715,-1.5724,-1.5753,-1.5765,-1.5785,-1.5787,-1.5778,-1.5786,-1.576,-1.5795,-1.5746,-1.5794,-1.5756,-1.5767,-1.5764,-1.5767,-1.577,-1.5717,-1.5801,-1.5935,-1.5949,-1.5771,-1.577,-1.5768,0,-1.5743,-1.5774,-1.5817,-1.5821,-1.5814,-1.5835,-1.5833,-1.5832,-1.5844,-1.5855,-1.5862,-1.5877,-1.5885,-1.5898,-1.5876,-1.5843,-1.5927,-1.5877,-1.5921,-1.5922,-1.5942,-1.5941,-1.6082,-1.5947,-1.5947,-1.5947,-1.5946,0,-1.5851,-1.5893,-1.586,-1.5887,-1.5932,-1.5903,-1.5948,-1.5942,-1.5941,-1.5966,-1.593,-1.5954,-1.5923,-1.5944,-1.5928,-1.597,-1.5974,-1.5968,-1.5963,-1.5972,-1.5973,-1.598,-1.5974,-1.595,-1.5949,-1.5949,-1.5948,0,-1.5969,-1.5949,-1.5993,-1.5982,-1.598,-1.6014,-1.6005,-1.603,-1.6017,-1.6049,-1.6054,-1.6035,-1.6058,-1.6037,-1.6059,-1.6047,-1.6104,-1.609,-1.6103,-1.61,-1.6146,-1.6142,-1.6297,-1.6316,-1.6168,-1.6169,-1.617,0,-1.6041,-1.6072,-1.6064,-1.6078,-1.6078,-1.61,-1.6111,-1.6082,-1.6095,-1.6099,-1.6123,-1.6142,-1.6157,-1.6195,-1.6183,-1.62,-1.6186,-1.6239,-1.6189,-1.6197,-1.6188,-1.6187,-1.6191,-1.625,-1.6252,-1.6253,-1.6255,0,-1.617,-1.6158,-1.6175,-1.6188,-1.6202,-1.6211,-1.6217,-1.623,-1.6201,-1.6217,-1.624,-1.6251,-1.6272,-1.6292,-1.6305,-1.6303,-1.6275,-1.627,-1.6281,-1.6292,-1.6299,-1.6296,-1.6133,-1.6267,-1.6266,-1.6265,-1.6264,-1.6264,-1.6268,-1.6293,-1.6291,-1.6311,-1.6312,-1.6319,-1.6341,-1.633,-1.6348,-1.6364,-1.6345,-1.6373,-1.6373,-1.6387,-1.6388,-1.641,-1.6388,-1.6404,-1.6408,-1.6413,-1.642,-1.6294,-1.6412,-1.6411,-1.6411,-1.6411,-1.641,0,-1.6396,-1.6392,-1.6411,-1.642,-1.6436,-1.6405,-1.641,-1.6426,-1.645,-1.6452,-1.6467,-1.6492,-1.6511,-1.65,-1.6516,-1.6535,-1.6523,-1.6541,-1.654,-1.654,-1.6439,-1.6428,-1.6551,-1.6551,-1.6551,-1.6551,-1.6551,-1.6551,-1.6465,-1.6506,-1.6494,-1.6535,-1.6531,-1.6557,-1.6563,-1.6569,-1.657,-1.66,-1.6615,-1.6607,-1.6604,-1.662,-1.6636,-1.6632,-1.664,-1.6663,-1.6655,-1.6561,-1.6547,-1.6534,-1.6524,-1.6665,-1.6665,-1.6754,-1.6755,-1.6756]},{"header":{"parameterUnit":"m.s-1","parameterCategory":1,"la1":30.2991,"la2":30.254,"lo1":-89.0895,"lo2":-89.0444,"dy":0.0017,"dx":0.0017,"nx":28,"ny":28,"refTime":"2025-01-22T03:00:00:Z","depth":0,"parameterNumber":3,"parameterNumberName":"V-component_of_WINDS"},"data":[0,0,0,0,0,0,0,0,0,0,0,0,0,0,0,0,0,0,0,0,0,0,0,0,0,0,0,0,0,0,0,0,0,0,0,0,0,0,0,0,0,0,0,0,0,0,0,0,0,0,0,0,0,0,0,0,0,0,-10.7365,-10.7367,0,-10.7555,-10.7557,-10.756,-10.7451,-10.7446,-10.744,-10.7435,-10.762,-10.763,-10.764,0,0,0,0,0,0,0,0,0,0,0,0,0,-10.6899,-10.6908,-10.7365,-10.7367,-10.737,-10.7555,-10.7558,-10.756,-10.7452,-10.7445,-10.7439,-10.7433,-10.7617,-10.7629,-10.764,0,0,0,0,0,0,0,0,0,0,0,0,0,-10.7096,-10.6911,-10.7365,-10.7338,-10.7338,-10.7554,-10.7558,-10.7561,-10.7453,-10.7445,-10.7437,-10.743,-10.7613,-10.7627,-10.7642,-10.7892,0,0,-10.7687,-10.7694,0,0,0,0,0,0,0,0,-10.7085,-10.7113,-10.734,-10.7341,-10.7341,-10.7472,-10.7461,-10.7672,-10.7455,-10.7409,-10.7435,-10.7426,-10.7577,-10.7594,-10.7647,-10.7901,-10.7909,-10.7689,-10.7697,-10.7704,-10.7708,0,0,0,0,0,0,0,-10.7072,-10.7105,-10.744,-10.7343,-10.7344,-10.7314,-10.7333,-10.75,-10.7535,-10.7413,-10.7405,-10.743,-10.7575,-10.7633,-10.765,-10.7911,-10.7688,-10.7701,-10.771,-10.7716,-10.838,-10.8388,0,0,0,0,0,0,-10.7061,-10.7094,-10.7434,-10.7446,-10.7191,-10.7329,-10.735,-10.7437,-10.7533,-10.754,-10.7436,-10.7424,-10.7611,-10.7633,-10.7656,-10.7956,-10.7704,-10.7718,-10.7726,-10.8371,-10.8382,-10.8391,0,0,0,0,0,0,-10.7052,-10.7093,-10.7426,-10.7268,-10.7308,-10.7346,-10.7444,-10.7445,-10.7503,-10.7551,-10.7555,-10.749,-10.7606,-10.7635,-10.7835,-10.7961,-10.7724,-10.7738,-10.8361,-10.8374,-10.8387,-10.8557,0,0,0,0,0,0,-10.7039,-10.709,-10.7187,-10.7271,-10.7317,-10.7605,-10.7452,-10.7455,-10.753,-10.7515,-10.7602,-10.7608,-10.7602,-10.7814,-10.785,-10.7977,-10.7749,-10.835,-10.8367,-10.8382,-10.854,-10.8574,-10.8603,0,0,0,0,0,-10.7022,-10.7225,-10.7193,-10.7235,-10.7441,-10.7613,-10.7639,-10.763,-10.754,-10.7637,-10.7668,-10.7606,-10.7941,-10.7835,-10.7875,-10.8008,-10.8342,-10.8362,-10.8381,-10.8526,-10.8568,-10.8603,0,0,0,0,0,0,-10.7152,-10.7236,-10.7201,-10.7438,-10.752,-10.7594,-10.7717,-10.7674,-10.778,-10.7762,-10.7743,-10.7764,-10.7972,-10.8009,-10.789,-10.8255,-10.8127,-10.8156,-10.8223,-10.8263,-10.8294,-10.8281,-10.7761,0,0,0,0,0,-10.7208,-10.7345,-10.7409,-10.7612,-10.7655,-10.7679,-10.7754,-10.774,-10.7823,-10.7856,-10.7901,-10.7981,-10.8104,-10.8185,-10.8301,-10.8545,-10.8561,-10.8656,-10.8687,-10.8713,-10.8738,-10.8869,-10.8912,-10.8456,-10.8456,-10.8456,0,0,-10.7325,-10.7388,-10.7475,-10.7639,-10.7701,-10.784,-10.7709,-10.7861,-10.7963,-10.7877,-10.807,-10.8106,-10.8194,-10.8417,-10.8517,-10.8454,-10.8868,-10.8738,-10.8758,-10.8769,-10.8894,-10.8937,-10.8976,-10.847,-10.8467,-10.8465,0,0,-10.7611,-10.7672,-10.7849,-10.7914,-10.8011,-10.8026,-10.8068,-10.815,-10.8172,-10.8366,-10.8305,-10.8424,-10.8637,-10.8702,-10.8763,-10.9074,-10.902,-10.9112,-10.9277,-10.9405,-10.9441,-10.9473,-10.9584,-10.9624,-10.9136,-10.9137,-10.9137,0,-10.7743,-10.7954,-10.7943,-10.8102,-10.8175,-10.8108,-10.8285,-10.8348,-10.8476,-10.8527,-10.8455,-10.8722,-10.8776,-10.9014,-10.909,-10.9141,-10.9187,-10.9102,-10.9437,-10.9469,-10.9499,-10.9604,-10.9646,-10.9147,-10.9146,-10.9145,-10.9144,0,-10.8112,-10.8259,-10.8388,-10.8519,-10.8607,-10.8773,-10.8786,-10.8875,-10.8854,-10.8876,-10.9073,-10.9136,-10.9264,-10.9319,-10.9298,-10.9554,-10.9512,-10.944,-10.9311,-10.9553,-10.9652,-10.9692,-10.9163,-10.9159,-10.9156,-10.9153,0,0,-10.8484,-10.8608,-10.8656,-10.8714,-10.8816,-10.8928,-10.909,-10.9219,-10.9296,-10.9386,-10.9521,-10.9703,-10.9637,-10.9707,-10.9692,-10.9805,-11.0048,-10.9718,-10.972,-10.9778,-11.0333,-11.0388,-11.0435,-11.0013,-11.002,-11.0027,-11.0326,0,-10.8776,-10.9065,-10.9061,-10.9327,-10.9461,-10.94,-10.9541,-10.9617,-10.9642,-10.9757,-10.9781,-10.9912,-10.9815,-10.9857,-10.9966,-10.9996,-11.0159,-10.9974,-11.0136,-11.0142,-11.0117,-11.0487,-11.0545,-11.0825,-11.0365,-11.0371,-11.0376,0,-10.9156,-10.9264,-10.9545,-10.9628,-10.9684,-10.9812,-10.993,-11.0041,-11.0125,-11.0135,-11.0214,-11.0182,-11.0344,-11.0211,-11.0433,-11.0307,-11.0373,-11.0398,-11.0408,-11.0423,-11.0274,-11.0512,-11.0914,-11.0956,-11.0437,-11.0432,-11.0428,0,-10.94,-10.9614,-10.981,-10.9862,-10.9964,-11.0055,-11.0101,-11.0178,-11.0256,-11.0357,-11.0407,-11.0525,-11.059,-11.068,-11.068,-11.0583,-11.0905,-11.0772,-11.0916,-11.0917,-11.0987,-11.0983,-11.1406,-11.1029,-11.1028,-11.1027,-11.1027,0,-10.9727,-10.9902,-10.9922,-11.0043,-11.0235,-11.0228,-11.0417,-11.0454,-11.0523,-11.0648,-11.0599,-11.0716,-11.0709,-11.0827,-11.0827,-11.1011,-11.104,-11.1051,-11.1049,-11.1056,-11.1055,-11.1099,-11.108,-11.1039,-11.1036,-11.1034,-11.1032,0,-11.0033,-11.0054,-11.0264,-11.0344,-11.0368,-11.0507,-11.0573,-11.0687,-11.0707,-11.0865,-11.0902,-11.0933,-11.1069,-11.1078,-11.1234,-11.1234,-11.1458,-11.1434,-11.1431,-11.1427,-11.1571,-11.1558,-11.2038,-11.21,-11.1683,-11.1687,-11.169,0,-11.0241,-11.0375,-11.047,-11.0552,-11.0605,-11.0737,-11.0817,-11.0813,-11.0898,-11.1005,-11.1105,-11.1238,-11.1344,-11.1564,-11.1598,-11.1717,-11.1696,-11.1856,-11.1713,-11.1716,-11.1699,-11.1691,-11.1704,-11.1883,-11.1888,-11.1892,-11.1895,0,-11.0609,-11.0613,-11.0732,-11.0857,-11.0955,-11.1051,-11.114,-11.1209,-11.1216,-11.1313,-11.1454,-11.1537,-11.1698,-11.183,-11.1946,-11.1989,-11.1944,-11.194,-11.198,-11.1988,-11.1982,-11.1988,-11.1508,-11.1929,-11.1925,-11.1923,-11.1921,-11.192,-11.0872,-11.0988,-11.1075,-11.1209,-11.1277,-11.1363,-11.1474,-11.151,-11.1628,-11.1762,-11.1751,-11.1907,-11.1986,-11.2139,-11.2192,-11.2311,-11.2257,-11.2314,-11.2329,-11.2343,-11.2359,-11.1963,-11.2332,-11.2331,-11.233,-11.233,-11.2329,0,-11.1238,-11.1291,-11.1415,-11.1544,-11.165,-11.1601,-11.1698,-11.1788,-11.1928,-11.2007,-11.2114,-11.2275,-11.2403,-11.2448,-11.2571,-11.2658,-11.264,-11.2691,-11.2684,-11.2695,-11.2401,-11.2354,-11.2703,-11.2703,-11.2703,-11.2703,-11.2703,-11.2703,-11.1441,-11.1635,-11.1649,-11.1876,-11.1926,-11.2082,-11.2141,-11.2219,-11.2283,-11.2467,-11.2574,-11.2604,-11.2669,-11.2797,-11.2911,-11.2921,-11.2968,-11.3028,-11.3029,-11.2753,-11.2716,-11.268,-11.2636,-11.3038,-11.3039,-11.3313,-11.3316,-11.3318]}]]